QPF
0.00 0.01 0.01 0.01 0.00 0.01 0.00 0.00 0.00 0.01 0.03 0.05 0.07 0.07 0.12 0.14 0.13 0.16 0.14 0.18 0.17 0.16 0.14 0.12 0.12 0.09 0.07 0.07 0.06 0.05 0.07 0.07 0.06 0.07 0.05 0.04 0.04 0.04 0.05 0.06 0.06 0.07 0.06 0.05
0.01 0.01 0.01 0.01 0.00 0.00 0.01 0.00 0.00 0.01 0.03 0.04 0.04 0.04 0.07 0.08 0.10 0.14 0.18 0.22 0.24 0.24 0.25 0.18 0.17 0.15 0.13 0.10 0.08 0.08 0.09 0.09 0.08 0.07 0.05 0.03 0.03 0.04 0.04 0.05 0.04 0.05 0.04 0.04
0.01 0.01 0.01 0.01 0.01 0.01 0.01 0.01 0.01 0.02 0.05 0.06 0.06 0.06 0.08 0.13 0.16 0.15 0.19 0.19 0.16 0.16 0.20 0.15 0.13 0.13 0.14 0.11 0.10 0.09 0.07 0.08 0.09 0.07 0.05 0.03 0.03 0.04 0.05 0.05 0.04 0.03 0.02 0.02
0.01 0.02 0.02 0.03 0.02 0.01 0.01 0.02 0.02 0.02 0.05 0.05 0.07 0.10 0.08 0.09 0.12 0.12 0.13 0.14 0.17 0.18 0.17 0.16 0.13 0.13 0.12 0.11 0.09 0.09 0.07 0.06 0.07 0.06 0.05 0.04 0.04 0.03 0.04 0.04 0.04 0.04 0.03 0.02
0.02 0.03 0.04 0.05 0.05 0.03 0.02 0.03 0.02 0.05 0.06 0.05 0.04 0.07 0.06 0.05 0.05 0.06 0.08 0.10 0.14 0.18 0.22 0.23 0.17 0.14 0.13 0.13 0.11 0.09 0.08 0.07 0.05 0.05 0.06 0.06 0.05 0.04 0.04 0.05 0.05 0.05 0.05 0.04
0.03 0.05 0.06 0.07 0.06 0.06 0.05 0.07 0.05 0.06 0.06 0.06 0.08 0.07 0.06 0.05 0.05 0.05 0.06 0.07 0.11 0.08 0.08 0.12 0.13 0.14 0.15 0.15 0.12 0.10 0.10 0.10 0.10 0.10 0.09 0.08 0.07 0.08 0.09 0.10 0.11 0.11 0.10 0.09
0.03 0.04 0.06 0.05 0.03 0.04 0.08 0.09 0.07 0.05 0.04 0.04 0.06 0.08 0.08 0.07 0.06 0.06 0.06 0.07 0.08 0.08 0.05 0.06 0.07 0.09 0.11 0.15 0.14 0.14 0.14 0.14 0.15 0.15 0.15 0.15 0.16 0.15 0.14 0.13 0.12 0.12 0.11 0.11
0.05 0.06 0.06 0.03 0.03 0.04 0.06 0.06 0.11 0.07 0.04 0.04 0.05 0.05 0.07 0.09 0.07 0.05 0.05 0.06 0.08 0.13 0.09 0.06 0.06 0.06 0.06 0.08 0.11 0.15 0.16 0.16 0.16 0.17 0.19 0.19 0.19 0.20 0.19 0.17 0.14 0.12 0.12 0.12
0.07 0.06 0.04 0.03 0.05 0.10 0.08 0.06 0.09 0.06 0.04 0.03 0.03 0.05 0.09 0.07 0.05 0.03 0.04 0.04 0.06 0.10 0.14 0.09 0.07 0.06 0.07 0.07 0.09 0.13 0.16 0.17 0.21 0.23 0.23 0.22 0.22 0.21 0.21 0.20 0.17 0.16 0.17 0.17
0.09 0.10 0.06 0.04 0.08 0.12 0.11 0.08 0.06 0.05 0.05 0.04 0.04 0.07 0.19 0.16 0.07 0.04 0.03 0.04 0.05 0.06 0.09 0.11 0.09 0.07 0.07 0.06 0.08 0.11 0.14 0.16 0.18 0.20 0.26 0.29 0.25 0.22 0.23 0.23 0.20 0.17 0.16 0.17
0.13 0.15 0.13 0.09 0.06 0.10 0.09 0.07 0.06 0.08 0.11 0.09 0.07 0.05 0.07 0.08 0.07 0.06 0.05 0.06 0.07 0.07 0.05 0.07 0.08 0.08 0.09 0.08 0.09 0.11 0.12 0.15 0.17 0.18 0.18 0.24 0.19 0.16 0.14 0.14 0.14 0.13 0.13 0.13
0.14 0.15 0.14 0.12 0.06 0.06 0.07 0.05 0.05 0.05 0.08 0.07 0.05 0.05 0.05 0.07 0.06 0.05 0.06 0.07 0.08 0.09 0.07 0.05 0.06 0.08 0.10 0.10 0.10 0.11 0.12 0.13 0.16 0.20 0.21 0.21 0.18 0.16 0.15 0.14 0.15 0.15 0.15 0.16
0.10 0.08 0.08 0.05 0.03 0.03 0.04 0.04 0.03 0.04 0.05 0.05 0.04 0.04 0.04 0.05 0.04 0.04 0.05 0.05 0.06 0.08 0.09 0.08 0.07 0.08 0.09 0.10 0.12 0.14 0.15 0.17 0.18 0.21 0.25 0.27 0.27 0.24 0.22 0.21 0.20 0.20 0.19 0.18
0.11 0.08 0.07 0.05 0.04 0.03 0.03 0.02 0.03 0.04 0.05 0.04 0.04 0.05 0.05 0.04 0.03 0.03 0.04 0.04 0.04 0.05 0.06 0.07 0.08 0.09 0.10 0.11 0.12 0.15 0.17 0.20 0.22 0.22 0.23 0.25 0.25 0.23 0.22 0.21 0.22 0.20 0.18 0.17
0.13 0.08 0.04 0.03 0.03 0.03 0.03 0.03 0.03 0.04 0.07 0.07 0.05 0.04 0.03 0.03 0.03 0.04 0.05 0.05 0.03 0.02 0.04 0.05 0.05 0.07 0.09 0.10 0.11 0.14 0.16 0.19 0.21 0.23 0.22 0.21 0.20 0.18 0.17 0.16 0.15 0.16 0.15 0.14
0.11 0.07 0.04 0.04 0.05 0.05 0.05 0.05 0.04 0.03 0.04 0.08 0.06 0.04 0.03 0.03 0.03 0.03 0.03 0.03 0.03 0.02 0.02 0.04 0.06 0.07 0.11 0.10 0.10 0.12 0.13 0.11 0.12 0.14 0.14 0.15 0.16 0.16 0.14 0.12 0.12 0.12 0.14 0.15
0.07 0.06 0.05 0.05 0.05 0.06 0.08 0.07 0.04 0.03 0.02 0.04 0.04 0.03 0.02 0.02 0.03 0.03 0.03 0.03 0.03 0.03 0.03 0.05 0.07 0.07 0.10 0.13 0.11 0.10 0.13 0.12 0.11 0.10 0.10 0.11 0.12 0.14 0.15 0.14 0.12 0.11 0.12 0.13
0.03 0.04 0.04 0.04 0.03 0.05 0.07 0.07 0.05 0.03 0.03 0.03 0.04 0.04 0.03 0.02 0.03 0.03 0.02 0.02 0.02 0.03 0.05 0.06 0.06 0.05 0.06 0.08 0.11 0.12 0.13 0.13 0.13 0.11 0.09 0.08 0.08 0.09 0.10 0.11 0.09 0.07 0.06 0.06
0.03 0.03 0.03 0.03 0.04 0.06 0.08 0.05 0.03 0.03 0.03 0.03 0.03 0.03 0.03 0.02 0.01 0.01 0.01 0.01 0.02 0.03 0.04 0.05 0.06 0.05 0.05 0.05 0.06 0.07 0.08 0.09 0.11 0.12 0.11 0.10 0.08 0.07 0.07 0.08 0.08 0.07 0.06 0.05
0.04 0.03 0.03 0.04 0.03 0.03 0.06 0.04 0.02 0.03 0.03 0.03 0.03 0.03 0.03 0.02 0.01 0.01 0.01 0.01 0.01 0.01 0.01 0.02 0.02 0.03 0.04 0.05 0.04 0.04 0.04 0.05 0.06 0.07 0.08 0.07 0.06 0.06 0.06 0.06 0.06 0.06 0.05 0.04
0.04 0.03 0.03 0.04 0.03 0.02 0.01 0.01 0.02 0.03 0.04 0.04 0.03 0.03 0.02 0.02 0.01 0.01 0.01 0.01 0.01 0.01 0.00 0.00 0.00 0.01 0.01 0.01 0.01 0.01 0.01 0.01 0.02 0.02 0.05 0.06 0.07 0.06 0.06 0.06 0.06 0.05 0.05 0.04
0.04 0.04 0.04 0.04 0.02 0.01 0.01 0.02 0.02 0.03 0.04 0.04 0.04 0.04 0.03 0.02 0.01 0.01 0.01 0.01 0.01 0.01 0.01 0.00 0.00 0.00 0.00 0.00 0.00 0.00 0.00 0.00 0.00 0.01 0.02 0.02 0.03 0.04 0.05 0.05 0.05 0.04 0.03 0.02
0.05 0.05 0.05 0.04 0.03 0.03 0.03 0.03 0.03 0.03 0.04 0.04 0.05 0.04 0.03 0.02 0.01 0.01 0.00 0.00 0.00 0.00 0.00 0.00 0.00 0.00 0.00 0.00 0.00 0.00 0.00 0.00 0.00 0.01 0.02 0.02 0.03 0.04 0.04 0.04 0.04 0.05 0.05 0.05
0.05 0.05 0.06 0.06 0.05 0.05 0.04 0.03 0.03 0.03 0.03 0.03 0.02 0.02 0.02 0.02 0.02 0.01 0.00 0.00 0.00 0.00 0.00 0.00 0.00 0.00 0.00 0.00 0.00 0.00 0.00 0.00 0.00 0.00 0.01 0.01 0.02 0.03 0.04 0.04 0.04 0.04 0.06 0.07
0.04 0.05 0.06 0.07 0.07 0.07 0.06 0.05 0.04 0.04 0.03 0.02 0.02 0.01 0.02 0.02 0.02 0.01 0.01 0.00 0.00 0.00 0.00 0.00 0.00 0.00 0.00 0.00 0.00 0.00 0.00 0.00 0.00 0.00 0.00 0.01 0.01 0.02 0.02 0.03 0.04 0.04 0.04 0.05
0.03 0.04 0.05 0.06 0.07 0.06 0.05 0.04 0.04 0.04 0.03 0.02 0.02 0.01 0.01 0.01 0.01 0.01 0.01 0.00 0.00 0.00 0.00 0.00 0.00 0.00 0.00 0.00 0.00 0.00 0.00 0.00 0.00 0.00 0.01 0.01 0.01 0.02 0.03 0.03 0.04 0.04 0.05 0.05
0.03 0.03 0.04 0.05 0.08 0.08 0.06 0.04 0.04 0.04 0.03 0.02 0.02 0.02 0.01 0.01 0.00 0.00 0.00 0.00 0.00 0.00 0.00 0.00 0.00 0.00 0.00 0.00 0.00 0.00 0.00 0.00 0.00 0.00 0.00 0.00 0.00 0.01 0.01 0.01 0.02 0.03 0.03 0.04
MSLP
1002.34 1002.87 1003.34 1003.75 1004.10 1004.39 1004.64 1004.84 1005.00 1005.13 1005.22 1005.28 1005.31 1005.32 1005.33 1005.36 1005.41 1005.51 1005.66 1005.84 1006.05 1006.25 1006.43 1006.54 1006.56 1006.47 1006.26 1005.94 1005.53 1005.08 1004.64 1004.26 1004.00 1003.92 1004.04 1004.38 1004.92 1005.65 1006.51 1007.46 1008.44 1009.39 1010.29 1011.10
1002.33 1002.85 1003.25 1003.53 1003.70 1003.79 1003.83 1003.86 1003.90 1003.97 1004.08 1004.22 1004.38 1004.54 1004.71 1004.87 1005.02 1005.16 1005.31 1005.47 1005.64 1005.81 1005.97 1006.11 1006.19 1006.19 1006.11 1005.92 1005.65 1005.32 1004.97 1004.66 1004.43 1004.35 1004.44 1004.73 1005.22 1005.89 1006.69 1007.57 1008.49 1009.39 1010.23 1010.99
1002.55 1003.03 1003.36 1003.52 1003.54 1003.47 1003.35 1003.25 1003.20 1003.23 1003.35 1003.55 1003.80 1004.07 1004.34 1004.57 1004.76 1004.90 1005.02 1005.12 1005.22 1005.35 1005.49 1005.64 1005.79 1005.90 1005.96 1005.94 1005.84 1005.67 1005.47 1005.26 1005.11 1005.06 1005.14 1005.40 1005.82 1006.41 1007.11 1007.90 1008.71 1009.51 1010.26 1010.93
1002.99 1003.41 1003.65 1003.71 1003.61 1003.42 1003.20 1003.00 1002.89 1002.90 1003.02 1003.26 1003.56 1003.89 1004.19 1004.45 1004.63 1004.73 1004.79 1004.81 1004.84 1004.91 1005.02 1005.19 1005.39 1005.61 1005.81 1005.96 1006.05 1006.07 1006.03 1005.97 1005.92 1005.92 1006.02 1006.25 1006.61 1007.10 1007.70 1008.35 1009.04 1009.71 1010.33 1010.88
1003.57 1003.90 1004.05 1004.02 1003.84 1003.58 1003.29 1003.04 1002.90 1002.89 1003.02 1003.26 1003.58 1003.92 1004.23 1004.46 1004.60 1004.65 1004.62 1004.57 1004.52 1004.52 1004.61 1004.78 1005.02 1005.33 1005.66 1005.97 1006.23 1006.42 1006.55 1006.63 1006.69 1006.77 1006.90 1007.11 1007.42 1007.82 1008.30 1008.83 1009.37 1009.90 1010.38 1010.82
1004.14 1004.38 1004.45 1004.36 1004.14 1003.84 1003.53 1003.28 1003.13 1003.12 1003.24 1003.48 1003.79 1004.11 1004.38 1004.57 1004.65 1004.63 1004.53 1004.39 1004.28 1004.22 1004.27 1004.43 1004.70 1005.06 1005.48 1005.90 1006.29 1006.63 1006.90 1007.10 1007.27 1007.42 1007.60 1007.81 1008.08 1008.41 1008.79 1009.20 1009.62 1010.01 1010.37 1010.70
1004.60 1004.75 1004.76 1004.65 1004.42 1004.14 1003.85 1003.63 1003.50 1003.50 1003.62 1003.85 1004.12 1004.40 1004.62 1004.74 1004.76 1004.67 1004.50 1004.30 1004.13 1004.02 1004.03 1004.16 1004.43 1004.80 1005.24 1005.72 1006.19 1006.61 1006.98 1007.28 1007.53 1007.76 1007.97 1008.21 1008.46 1008.75 1009.07 1009.39 1009.70 1010.00 1010.26 1010.50
1004.87 1004.95 1004.94 1004.84 1004.66 1004.43 1004.21 1004.05 1003.97 1003.99 1004.11 1004.31 1004.54 1004.75 1004.91 1004.97 1004.92 1004.77 1004.55 1004.31 1004.08 1003.93 1003.89 1003.97 1004.20 1004.53 1004.95 1005.42 1005.89 1006.34 1006.75 1007.10 1007.42 1007.70 1007.97 1008.23 1008.51 1008.79 1009.08 1009.36 1009.62 1009.85 1010.06 1010.25
1004.91 1004.97 1004.98 1004.93 1004.84 1004.72 1004.61 1004.53 1004.51 1004.57 1004.69 1004.85 1005.03 1005.17 1005.26 1005.25 1005.14 1004.94 1004.68 1004.40 1004.14 1003.94 1003.85 1003.87 1004.01 1004.26 1004.60 1004.99 1005.41 1005.83 1006.22 1006.59 1006.94 1007.27 1007.59 1007.91 1008.23 1008.55 1008.85 1009.14 1009.39 1009.61 1009.80 1009.97
1004.79 1004.86 1004.94 1004.99 1005.03 1005.05 1005.06 1005.09 1005.15 1005.24 1005.35 1005.48 1005.59 1005.66 1005.66 1005.59 1005.42 1005.19 1004.90 1004.59 1004.29 1004.05 1003.90 1003.84 1003.87 1004.01 1004.22 1004.49 1004.80 1005.14 1005.48 1005.83 1006.19 1006.56 1006.94 1007.34 1007.73 1008.12 1008.49 1008.82 1009.11 1009.36 1009.56 1009.75
1004.60 1004.74 1004.92 1005.11 1005.29 1005.46 1005.62 1005.76 1005.89 1006.00 1006.10 1006.18 1006.22 1006.21 1006.13 1005.99 1005.77 1005.50 1005.19 1004.86 1004.54 1004.26 1004.03 1003.88 1003.80 1003.79 1003.85 1003.98 1004.15 1004.38 1004.65 1004.96 1005.32 1005.73 1006.18 1006.66 1007.16 1007.65 1008.11 1008.52 1008.88 1009.19 1009.44 1009.65
1004.48 1004.72 1005.03 1005.36 1005.70 1006.02 1006.30 1006.54 1006.72 1006.85 1006.93 1006.95 1006.91 1006.82 1006.66 1006.44 1006.18 1005.87 1005.54 1005.20 1004.86 1004.54 1004.26 1004.01 1003.81 1003.66 1003.57 1003.54 1003.57 1003.68 1003.87 1004.14 1004.51 1004.96 1005.48 1006.06 1006.67 1007.28 1007.85 1008.38 1008.83 1009.20 1009.50 1009.76
1004.56 1004.91 1005.35 1005.82 1006.29 1006.73 1007.11 1007.42 1007.64 1007.76 1007.80 1007.76 1007.64 1007.45 1007.22 1006.94 1006.63 1006.30 1005.96 1005.61 1005.25 1004.90 1004.57 1004.24 1003.93 1003.66 1003.42 1003.25 1003.16 1003.16 1003.28 1003.53 1003.90 1004.39 1005.00 1005.68 1006.40 1007.13 1007.82 1008.45 1009.00 1009.44 1009.80 1010.08
1004.91 1005.37 1005.91 1006.49 1007.06 1007.58 1008.02 1008.36 1008.58 1008.68 1008.66 1008.55 1008.35 1008.09 1007.79 1007.47 1007.13 1006.78 1006.43 1006.07 1005.72 1005.35 1004.97 1004.58 1004.19 1003.82 1003.48 1003.20 1003.00 1002.93 1003.00 1003.22 1003.61 1004.15 1004.83 1005.60 1006.43 1007.26 1008.06 1008.79 1009.41 1009.91 1010.31 1010.61
1005.56 1006.10 1006.72 1007.35 1007.97 1008.52 1008.97 1009.30 1009.50 1009.55 1009.48 1009.30 1009.04 1008.72 1008.38 1008.02 1007.66 1007.31 1006.96 1006.62 1006.27 1005.89 1005.49 1005.07 1004.63 1004.19 1003.77 1003.41 1003.16 1003.03 1003.07 1003.29 1003.69 1004.27 1005.01 1005.85 1006.76 1007.68 1008.55 1009.34 1010.02 1010.57 1010.98 1011.29
1006.48 1007.06 1007.70 1008.34 1008.95 1009.49 1009.91 1010.20 1010.34 1010.35 1010.22 1009.99 1009.69 1009.34 1008.97 1008.60 1008.25 1007.91 1007.59 1007.27 1006.93 1006.57 1006.16 1005.73 1005.26 1004.78 1004.33 1003.93 1003.64 1003.49 1003.51 1003.73 1004.15 1004.76 1005.52 1006.41 1007.36 1008.32 1009.23 1010.05 1010.75 1011.31 1011.74 1012.04
1007.58 1008.17 1008.78 1009.38 1009.94 1010.41 1010.77 1011.00 1011.09 1011.04 1010.88 1010.63 1010.31 1009.95 1009.59 1009.25 1008.92 1008.61 1008.33 1008.04 1007.73 1007.38 1007.00 1006.56 1006.09 1005.61 1005.15 1004.75 1004.45 1004.29 1004.31 1004.53 1004.95 1005.56 1006.33 1007.21 1008.16 1009.11 1010.02 1010.83 1011.52 1012.07 1012.49 1012.78
1008.76 1009.31 1009.86 1010.39 1010.86 1011.25 1011.53 1011.69 1011.73 1011.65 1011.47 1011.22 1010.91 1010.59 1010.27 1009.97 1009.69 1009.43 1009.19 1008.93 1008.66 1008.35 1007.99 1007.58 1007.13 1006.67 1006.22 1005.84 1005.55 1005.40 1005.42 1005.63 1006.03 1006.61 1007.35 1008.19 1009.09 1009.99 1010.85 1011.61 1012.27 1012.78 1013.17 1013.44
1009.91 1010.40 1010.86 1011.30 1011.67 1011.97 1012.17 1012.27 1012.27 1012.18 1012.01 1011.79 1011.53 1011.26 1011.01 1010.77 1010.55 1010.35 1010.16 1009.95 1009.72 1009.44 1009.12 1008.74 1008.34 1007.91 1007.50 1007.14 1006.88 1006.75 1006.77 1006.96 1007.33 1007.86 1008.52 1009.29 1010.10 1010.91 1011.68 1012.37 1012.95 1013.42 1013.77 1014.02
1010.93 1011.34 1011.72 1012.06 1012.34 1012.55 1012.68 1012.74 1012.73 1012.65 1012.51 1012.34 1012.15 1011.96 1011.78 1011.62 1011.47 1011.33 1011.18 1011.02 1010.83 1010.60 1010.32 1009.99 1009.62 1009.25 1008.89 1008.58 1008.36 1008.24 1008.27 1008.44 1008.76 1009.22 1009.79 1010.45 1011.14 1011.84 1012.50 1013.09 1013.60 1014.01 1014.32 1014.54
1011.74 1012.09 1012.39 1012.64 1012.84 1012.99 1013.08 1013.12 1013.11 1013.05 1012.97 1012.87 1012.76 1012.65 1012.54 1012.45 1012.37 1012.28 1012.18 1012.07 1011.91 1011.72 1011.49 1011.21 1010.91 1010.60 1010.30 1010.05 1009.88 1009.79 1009.82 1009.97 1010.25 1010.63 1011.10 1011.64 1012.22 1012.79 1013.33 1013.82 1014.24 1014.59 1014.86 1015.07
1012.33 1012.61 1012.85 1013.04 1013.18 1013.29 1013.35 1013.39 1013.40 1013.38 1013.36 1013.32 1013.28 1013.25 1013.22 1013.18 1013.15 1013.11 1013.05 1012.97 1012.86 1012.71 1012.52 1012.31 1012.08 1011.85 1011.63 1011.45 1011.33 1011.29 1011.34 1011.48 1011.71 1012.02 1012.41 1012.84 1013.29 1013.75 1014.18 1014.58 1014.92 1015.22 1015.46 1015.65
1012.67 1012.91 1013.10 1013.24 1013.36 1013.44 1013.50 1013.54 1013.58 1013.61 1013.63 1013.65 1013.68 1013.70 1013.72 1013.73 1013.74 1013.73 1013.70 1013.65 1013.58 1013.47 1013.34 1013.20 1013.05 1012.90 1012.77 1012.68 1012.63 1012.65 1012.72 1012.87 1013.07 1013.34 1013.65 1013.99 1014.35 1014.71 1015.05 1015.38 1015.67 1015.92 1016.14 1016.34
1012.79 1013.00 1013.16 1013.28 1013.37 1013.45 1013.51 1013.57 1013.63 1013.69 1013.75 1013.82 1013.89 1013.95 1014.00 1014.05 1014.08 1014.09 1014.09 1014.06 1014.02 1013.96 1013.89 1013.82 1013.76 1013.70 1013.67 1013.67 1013.71 1013.78 1013.91 1014.07 1014.28 1014.52 1014.78 1015.07 1015.36 1015.66 1015.94 1016.22 1016.47 1016.71 1016.93 1017.13
1012.75 1012.93 1013.07 1013.17 1013.26 1013.33 1013.40 1013.47 1013.55 1013.63 1013.73 1013.82 1013.91 1014.00 1014.07 1014.13 1014.17 1014.20 1014.22 1014.21 1014.21 1014.20 1014.19 1014.19 1014.21 1014.25 1014.32 1014.41 1014.53 1014.68 1014.86 1015.06 1015.28 1015.52 1015.76 1016.02 1016.28 1016.54 1016.80 1017.06 1017.31 1017.55 1017.78 1017.99
1012.60 1012.76 1012.88 1012.97 1013.05 1013.12 1013.20 1013.28 1013.37 1013.48 1013.58 1013.70 1013.80 1013.90 1013.98 1014.05 1014.10 1014.14 1014.17 1014.20 1014.23 1014.26 1014.32 1014.39 1014.49 1014.61 1014.77 1014.94 1015.14 1015.36 1015.59 1015.83 1016.08 1016.33 1016.58 1016.83 1017.09 1017.34 1017.60 1017.86 1018.12 1018.38 1018.62 1018.85
1012.40 1012.54 1012.65 1012.73 1012.81 1012.89 1012.97 1013.07 1013.17 1013.29 1013.41 1013.54 1013.66 1013.77 1013.86 1013.94 1014.00 1014.06 1014.11 1014.16 1014.23 1014.31 1014.41 1014.55 1014.71 1014.90 1015.12 1015.36 1015.62 1015.89 1016.16 1016.44 1016.71 1016.98 1017.24 1017.51 1017.77 1018.04 1018.31 1018.59 1018.87 1019.14 1019.41 1019.66
Thickness
5739 5750 5753 5750 5750 5751 5744 5735 5724 5725 5727 5733 5739 5742 5748 5753 5755 5759 5757 5756 5757 5755 5755 5754 5754 5754 5754 5753 5753 5751 5747 5743 5740 5739 5739 5737 5736 5735 5734 5734 5734 5732 5730 5729
5730 5745 5747 5741 5745 5747 5744 5740 5733 5730 5726 5737 5740 5742 5743 5747 5750 5750 5751 5752 5753 5753 5752 5751 5750 5751 5750 5750 5750 5749 5746 5743 5741 5739 5737 5736 5736 5734 5733 5732 5731 5730 5728 5727
5707 5728 5731 5717 5731 5735 5733 5737 5734 5722 5725 5733 5730 5732 5735 5739 5742 5743 5744 5745 5747 5748 5749 5749 5750 5750 5749 5749 5749 5747 5745 5743 5741 5739 5737 5736 5736 5734 5733 5731 5729 5728 5727 5726
5697 5706 5693 5710 5736 5738 5730 5728 5732 5729 5728 5728 5727 5729 5733 5736 5736 5737 5738 5738 5741 5744 5746 5747 5748 5749 5749 5749 5748 5746 5744 5743 5741 5739 5737 5736 5735 5734 5732 5730 5728 5726 5725 5723
5683 5684 5692 5711 5724 5727 5720 5710 5723 5723 5722 5723 5726 5727 5724 5730 5732 5731 5733 5735 5738 5741 5743 5743 5744 5745 5745 5745 5744 5743 5742 5741 5741 5740 5737 5736 5734 5733 5731 5729 5726 5724 5723 5720
5679 5678 5677 5694 5718 5730 5721 5696 5712 5717 5716 5718 5719 5707 5708 5718 5722 5725 5727 5729 5733 5736 5738 5739 5740 5741 5740 5739 5739 5739 5740 5740 5740 5739 5738 5736 5734 5732 5730 5728 5725 5722 5719 5718
5673 5671 5678 5697 5713 5720 5694 5690 5706 5710 5710 5710 5706 5705 5707 5711 5713 5716 5719 5722 5725 5727 5729 5731 5734 5735 5735 5735 5736 5738 5739 5738 5738 5737 5737 5736 5733 5731 5728 5725 5722 5719 5716 5715
5665 5662 5668 5694 5701 5695 5691 5698 5701 5701 5702 5702 5700 5701 5702 5702 5703 5707 5709 5713 5716 5718 5721 5724 5727 5729 5729 5730 5732 5734 5735 5734 5734 5734 5733 5733 5730 5727 5725 5722 5717 5714 5712 5710
5664 5664 5674 5685 5688 5692 5694 5693 5693 5693 5694 5696 5694 5692 5691 5691 5692 5695 5699 5702 5706 5709 5711 5715 5718 5720 5720 5723 5726 5728 5728 5729 5729 5729 5728 5727 5725 5722 5719 5717 5713 5710 5707 5704
5660 5662 5669 5675 5680 5683 5687 5687 5687 5687 5687 5688 5684 5682 5681 5680 5681 5684 5687 5691 5695 5699 5702 5704 5707 5711 5713 5716 5720 5721 5722 5722 5722 5722 5721 5720 5719 5716 5714 5711 5709 5706 5703 5700
5654 5656 5661 5665 5669 5673 5675 5677 5677 5676 5676 5676 5675 5672 5671 5670 5671 5673 5676 5679 5683 5686 5689 5692 5697 5700 5704 5708 5712 5713 5714 5714 5714 5714 5712 5710 5707 5705 5704 5703 5703 5700 5698 5695
5649 5654 5654 5654 5660 5666 5666 5665 5666 5665 5664 5665 5665 5662 5661 5661 5662 5663 5665 5668 5671 5675 5678 5682 5686 5689 5693 5698 5702 5705 5705 5705 5704 5703 5701 5699 5696 5692 5690 5690 5690 5690 5689 5686
5651 5654 5654 5654 5655 5657 5656 5656 5656 5656 5655 5654 5653 5652 5652 5651 5652 5654 5655 5658 5661 5663 5667 5671 5675 5678 5682 5686 5691 5693 5694 5694 5693 5692 5690 5688 5686 5684 5679 5676 5676 5675 5674 5674
5650 5649 5646 5646 5646 5647 5648 5648 5647 5646 5645 5644 5643 5643 5642 5642 5643 5644 5645 5647 5650 5653 5656 5660 5664 5666 5670 5675 5679 5681 5682 5683 5682 5681 5679 5678 5675 5672 5670 5668 5665 5661 5660 5659
5641 5643 5641 5641 5639 5638 5639 5638 5636 5634 5634 5634 5634 5634 5633 5633 5634 5634 5635 5638 5640 5643 5646 5649 5652 5654 5658 5663 5667 5669 5671 5671 5670 5669 5667 5665 5663 5660 5658 5657 5655 5651 5649 5647
5631 5633 5633 5632 5631 5630 5629 5628 5626 5624 5625 5624 5624 5624 5624 5624 5624 5624 5625 5627 5629 5630 5633 5637 5639 5642 5647 5651 5655 5656 5658 5659 5658 5657 5655 5653 5650 5648 5646 5643 5642 5640 5638 5635
5623 5621 5622 5622 5622 5622 5621 5621 5620 5618 5617 5617 5616 5617 5616 5616 5615 5614 5615 5617 5619 5621 5623 5626 5628 5632 5636 5640 5642 5643 5644 5644 5645 5643 5642 5640 5638 5636 5633 5631 5629 5627 5624 5622
5622 5621 5621 5621 5618 5616 5614 5614 5612 5611 5610 5610 5610 5610 5608 5607 5605 5605 5606 5608 5611 5612 5613 5616 5619 5622 5625 5627 5629 5629 5629 5629 5629 5628 5626 5624 5623 5621 5620 5618 5615 5612 5609 5608
5616 5616 5616 5615 5613 5610 5608 5606 5605 5605 5604 5604 5603 5601 5599 5598 5598 5598 5599 5600 5601 5601 5602 5606 5609 5612 5613 5615 5616 5616 5615 5615 5614 5613 5611 5609 5608 5606 5604 5602 5600 5597 5594 5592
5610 5610 5610 5608 5606 5604 5602 5601 5600 5599 5598 5597 5596 5594 5592 5591 5591 5591 5591 5590 5590 5591 5594 5597 5599 5601 5602 5603 5605 5603 5602 5601 5600 5598 5597 5595 5593 5590 5588 5587 5584 5581 5579 5576
5602 5602 5602 5601 5599 5598 5597 5596 5594 5592 5592 5591 5589 5587 5585 5585 5585 5585 5584 5582 5583 5586 5588 5590 5590 5591 5592 5592 5592 5591 5589 5588 5586 5584 5582 5580 5577 5575 5573 5571 5569 5566 5564 5561
5594 5595 5594 5594 5592 5591 5590 5590 5589 5587 5586 5584 5582 5580 5578 5577 5577 5576 5575 5575 5576 5579 5580 5580 5580 5581 5582 5581 5580 5578 5576 5575 5572 5570 5568 5565 5563 5560 5558 5556 5553 5551 5549 5547
5587 5587 5587 5587 5586 5585 5584 5583 5582 5581 5579 5577 5575 5573 5571 5570 5569 5569 5567 5567 5570 5571 5570 5570 5570 5571 5570 5569 5567 5565 5563 5561 5558 5556 5554 5551 5549 5546 5543 5541 5539 5537 5534 5532
5580 5581 5581 5581 5581 5579 5576 5575 5575 5573 5571 5569 5568 5567 5565 5563 5561 5561 5561 5562 5562 5561 5560 5559 5560 5559 5558 5555 5553 5551 5549 5547 5544 5542 5540 5537 5534 5532 5529 5527 5524 5522 5520 5517
5575 5575 5575 5575 5573 5571 5569 5569 5567 5565 5563 5561 5560 5559 5558 5557 5555 5554 5553 5553 5552 5551 5549 5548 5548 5547 5545 5542 5539 5536 5534 5533 5531 5528 5526 5523 5520 5518 5516 5513 5511 5508 5506 5503
5568 5568 5567 5567 5566 5565 5564 5562 5559 5556 5555 5553 5552 5551 5550 5549 5548 5546 5544 5543 5542 5540 5538 5537 5535 5534 5531 5529 5526 5524 5521 5519 5518 5515 5512 5510 5508 5505 5502 5499 5497 5493 5491 5488
5561 5561 5560 5559 5559 5558 5557 5554 5552 5549 5548 5546 5544 5542 5541 5540 5538 5537 5535 5533 5531 5529 5527 5525 5523 5521 5518 5516 5514 5511 5509 5507 5504 5502 5500 5497 5495 5492 5489 5486 5483 5480 5477 5474